Flag for Japan Weather past 2 weeks in Kitakyushu, Japan

Now
50 °F

Sprinkles. Fog.


Feels Like: 46 °F
Forecast: 48 / 54 °F
Wind: 10 mph from North

Location: Kitakyushu Airport

Current Time: Jan 26, 2015 at 8:24:48 AM

Latest Report: Jan 26, 2015 at 8:00 AM


Visibility: 3 mi

Pressure: 30.07 "Hg

Humidity: 94%

Dew point: 48 °F

Location of KitakyushuLocation

Historic Weather in Kitakyushu — Graph

°F

Kitakyushu temperature yesterday

Maximum temperature yesterday: 50 °F (at 2:00 PM)
Minimum temperature yesterday: 41 °F (at 7:00 AM)
Average temperature yesterday: 47 °F

Past Weeks' High & Low Weather Summary

 TemperatureHumidityPressure
High55 °F (Jan 24, 2:00 PM)100% (Jan 15, 1:00 AM)30.54 "Hg (Jan 15, 1:00 AM)
Low32 °F (Jan 18, 7:00 AM)35% (Jan 11, 8:00 PM)29.80 "Hg (Jan 22, 1:00 PM)
Average46 °F71%30.19 "Hg
* Reported Jan 11 7:00 AM — Jan 26 7:00 AM, Kitakyushu, Weather by CustomWeather, © 2014

Note: Actual official high and low records may vary slightly from our data, if they occured in-between our weather recording intervals... More about our weather records

Advertising

Kitakyushu weather history for previous 24 hours

 ConditionsComfort  
Time TempWeatherWind HumidityBarometerVisibility
7:00 AM
Jan 26
50 °FPassing clouds.8 mph94%30.09 "Hg5 mi
6:00 AM50 °FSprinkles. Fog.8 mph94%30.09 "Hg3 mi
5:00 AM48 °FLight rain. Fog.6 mph100%30.12 "Hg3 mi
4:00 AM48 °FLight rain. Fog.3 mph94%30.15 "Hg3 mi
3:00 AM46 °FLight rain. Partly cloudy.2 mph93%30.18 "Hg4 mi
2:00 AM46 °FLight rain. Partly cloudy.6 mph93%30.21 "Hg4 mi
1:00 AM48 °FLight rain. Partly cloudy.6 mph94%30.21 "Hg5 mi
12:00 AM48 °FLight rain. Partly cloudy.5 mph94%30.21 "HgN/A
11:00 PM
Jan 25
48 °FPartly cloudy.1 mph87%30.24 "HgN/A
10:00 PM48 °FPartly cloudy.3 mph87%30.24 "HgN/A
9:00 PM48 °FPartly cloudy.7 mph87%30.27 "HgN/A
8:00 PM50 °FPassing clouds.6 mph88%30.27 "HgN/A
7:00 PM48 °FPartly cloudy.8 mph87%30.27 "HgN/A
6:00 PM50 °FPartly cloudy.8 mph82%30.27 "HgN/A
5:00 PM50 °FBroken clouds.5 mph82%30.27 "HgN/A
4:00 PM50 °FBroken clouds.9 mph82%30.27 "HgN/A
3:00 PM50 °FBroken clouds.8 mph76%30.27 "HgN/A
2:00 PM50 °FPartly sunny.9 mph76%30.27 "HgN/A
1:00 PM48 °FPartly sunny.3 mph76%30.30 "HgN/A
12:00 PM48 °FPartly sunny.3 mph76%30.33 "HgN/A
11:00 AM46 °FPartly sunny.3 mph82%30.33 "HgN/A
10:00 AM46 °FPartly sunny.3 mph82%30.36 "HgN/A
9:00 AM45 °FPartly sunny.5 mph87%30.36 "HgN/A
8:00 AM45 °FPartly sunny.7 mph87%30.36 "HgN/A
Weather by CustomWeather, © 2014

See weather overviewHow to use our weather pages